Location: Bainghen
(50.7525°N, 1.9073°E)
Time: 22:21:22
(UTC+00:00)

Daily predictions for brighter satellites

Satellite Brightness Start Highest point End
(mag) Time Altitude Azimuth Time Altitude Azimuth Time Altitude Azimuth
Cosmos 1515 Rocket 3.9 16:49:40 10° SSW 16:53:56 69° WNW 16:58:17 10° N
Tsikada Rocket 4.0 16:48:37 10° S 16:54:41 67° E 17:00:49 10° NNE
BlueWalker 3 2.0 16:52:03 10° WNW 16:55:40 56° N 16:59:17 10° E
USA 81 4.1 16:51:36 10° S 16:56:49 68° E 17:02:04 10° N
BREEZE-M DEB (TANK) 2.8 16:55:15 10° SSW 16:57:12 23° SSE 16:59:25 10° E
Cosmos 1455 1.7 16:54:29 10° N 16:57:41 62° ENE 17:00:51 10° SSE
Cosmos 2278 Rocket 2.2 16:52:16 10° NNW 16:57:56 65° ENE 17:03:34 10° SE
COSMO-SKYMED 1 4.1 16:57:39 10° NE 17:00:41 18° E 17:03:41 10° SE
Cosmos 2219 Rocket 2.5 16:55:34 10° SW 17:01:08 67° WNW 17:06:46 10° NNE
ARGOS Delta rocket 3.8 16:58:16 10° SSE 17:02:47 56° ENE 17:07:10 10° N
ISS -1.9 17:00:37 10° SSW 17:03:08 20° SE 17:05:39 10° E
Cosmos 2084 Rocket 4.5 17:00:03 10° NW 17:04:00 48° SW 17:07:51 10° SSE
CZ-4C R/B 3.4 17:01:48 10° SSE 17:04:36 17° ESE 17:07:46 10° ENE
CSL-04 DEB 4.2 17:02:53 10° SSE 17:06:41 61° ENE 17:10:26 10° N
Meteor 1-21 4.3 17:03:42 10° S 17:09:10 57° E 17:14:43 10° NNE
Cosmos 1758 4.2 17:06:19 10° NNW 17:10:05 51° W 17:13:50 10° S
USA 306 2.2 17:08:57 10° WNW 17:10:50 33° N 17:12:55 13° ENE
SL-14 R/B 3.8 17:07:38 10° SSW 17:11:21 59° WNW 17:15:07 10° N
CORIOLIS 4.3 17:06:10 10° SSE 17:11:36 88° WSW 17:17:05 10° NNW
Cosmos 1763 Rocket 3.6 17:07:06 10° S 17:12:10 55° ESE 17:17:11 10° NNE
Spot 4 Rocket 4.0 17:08:01 10° SSE 17:13:08 78° ENE 17:18:17 10° NNW
Cosmos 1733 Rocket 3.3 17:09:32 10° N 17:13:48 46° ENE 17:18:03 10° SSE
YAOGAN 1 3.7 17:10:46 10° ESE 17:14:01 22° ENE 17:17:17 10° NNE
Cosmos 540 Rocket 3.7 17:12:59 10° S 17:17:54 48° ESE 17:22:49 10° NNE
Landsat 7 4.3 17:15:43 10° SE 17:20:02 37° ENE 17:24:22 10° N
Cosmos 2322 3.8 17:14:47 10° SSW 17:20:31 87° WNW 17:26:18 10° NNE
Cosmos 468 Rocket 4.4 17:16:59 10° S 17:21:50 42° ESE 17:26:40 10° NE
USA 215 3.4 17:16:12 10° ENE 17:22:41 70° NNW 17:29:10 10° WSW
Cosmos 2228 Rocket 3.5 17:21:29 10° SSE 17:25:46 43° E 17:30:06 10° NNE
Cosmos 2279 Rocket 3.9 17:19:41 10° N 17:25:55 76° ENE 17:32:06 10° SSE
NOSS 8 (A) 4.1 17:25:05 10° NW 17:27:58 84° SW 17:31:20 10° SE
Cosmos 1656 Rocket 4.4 17:23:24 10° NNW 17:28:09 29° NE 17:32:58 10° ESE
Cosmos 1980 Rocket 4.5 17:26:34 10° NNW 17:28:12 11° NNW 17:29:50 10° N
Cosmos 1898 Rocket 3.6 17:23:24 10° NNW 17:28:37 56° ENE 17:33:50 10° SE
Cosmos 841 Rocket 4.5 17:27:08 10° SSE 17:31:27 27° E 17:35:00 14° NE
Aureole 1 Rocket 4.3 17:24:53 10° NNW 17:32:39 73° ENE 17:39:39 10° SSE
PSLV R/B 3.6 17:29:51 10° S 17:33:54 75° WSW 17:38:01 10° NNW
Okean 1-7 3.7 17:35:41 10° SSE 17:39:29 32° E 17:43:19 10° NNE
Cosmos 1980 3.8 17:34:17 10° S 17:39:44 54° ESE 17:44:57 11° NE
SL-16 R/B 3.6 17:36:10 10° SE 17:39:45 17° E 17:40:55 16° E
Cosmos 1953 2.1 17:38:56 10° N 17:42:41 89° E 17:46:24 10° S
NOSS 8 (E) 4.5 17:38:40 10° SW 17:42:42 71° SE 17:44:41 22° NE
SMAP 4.2 17:38:36 10° S 17:43:05 47° W 17:47:36 10° NNW
SKYMED 2 3.8 17:44:49 10° NNE 17:49:04 49° E 17:53:17 10° S
NOSS 0 Rocket 3.9 17:43:29 10° SSW 17:49:38 81° ESE 17:55:40 11° NNE
Cosmos 1818 3.7 17:45:55 10° NW 17:51:18 55° NE 17:56:19 12° ESE
ATLAS 2AS CENTAUR R/B 2.7 17:46:05 10° NW 17:52:52 58° NE 17:59:05 12° ESE
SL-16 R/B 4.4 17:48:48 10° N 17:53:49 26° NW 17:58:50 10° WSW
Cosmos 2369 Rocket 2.9 17:49:20 10° NNW 17:54:18 31° NE 17:56:55 22° E
NOSS 8 (H) 4.3 17:50:33 10° SW 17:54:25 78° SE 17:55:55 29° NE
Resurs 01 Rocket 3.6 17:57:26 12° NNE 17:57:26 12° NNE 17:58:05 10° NNE
ACS3 Solar Sail 1.9 17:50:34 10° SSE 17:56:52 64° ENE 18:03:12 10° N
COSMOS 2428 3.2 17:51:21 10° SW 17:56:58 60° NW 18:02:38 10° NNE
IGS 5A 4.3 17:53:51 10° S 17:57:45 51° W 18:01:42 10° NNW
Cosmos 372 Rocket 3.9 17:53:35 10° NNW 17:58:42 89° ENE 18:03:47 10° SSE
Cosmos 2333 Rocket 4.1 17:54:36 10° W 17:58:55 22° NW 18:03:17 10° NNE
DNEPR-1 R/B 4.4 17:58:46 10° NW 18:03:33 55° WSW 18:07:44 10° SSE
BREEZE-M DEB (TANK) 3.5 17:56:38 10° WSW 18:05:40 75° S 18:07:22 31° E
Cosmos 1908 Rocket 3.6 18:02:37 10° N 18:06:54 52° ENE 18:11:06 10° SSE
Cosmos 2322 Rocket 4.3 18:04:30 10° WNW 18:08:17 18° NNW 18:12:05 10° N
Cosmos 2360 Rocket 4.3 18:07:05 10° W 18:11:08 20° NW 18:15:14 10° NNE
EO 1 Delta rocket 3.7 18:08:13 10° NNE 18:13:01 71° E 18:17:38 10° S
Meteor 1-31 Rocket 2.4 18:09:33 10° SSE 18:13:06 86° ENE 18:16:43 10° NNW
Okean 3 4.0 18:09:39 10° SSW 18:13:41 58° WNW 18:17:47 10° N
Cosmos 1707 Rocket 4.0 18:10:05 10° SSW 18:14:30 65° WNW 18:18:55 10° N
Okean 2 3.7 18:13:33 10° SSW 18:17:28 64° WNW 18:21:26 10° N
Cosmos 2297 4.0 18:12:01 10° NNW 18:17:36 47° NE 18:20:17 28° ESE
Cosmos 1937 Rocket 3.5 18:13:32 10° NNW 18:18:42 84° WSW 18:23:52 10° SSE
SL-16 R/B 4.5 18:16:14 10° NW 18:18:57 13° NNW 18:21:40 10° N
CZ-2C R/B 2.4 18:22:18 58° NE 18:22:18 58° NE 18:25:19 10° N
Cosmos 2026 Rocket 4.2 18:17:11 10° SSE 18:23:14 48° E 18:29:19 10° NNE
Cosmos 858 Rocket 4.4 18:18:02 10° NNW 18:23:17 84° ENE 18:28:31 10° SSE
BREEZE-M DEB (TANK) 3.6 18:12:50 10° WSW 18:27:00 62° SSE 18:28:56 36° E
Cosmos 1943 Rocket 3.6 18:22:09 10° NW 18:27:24 40° WSW 18:32:36 10° S
RESURS DK-1 4.2 18:24:40 10° NW 18:28:14 31° WSW 18:31:47 10° S
Cosmos 1428 Rocket 4.4 18:23:52 10° S 18:30:02 70° E 18:36:09 10° NNE
YAOGAN 3 4.4 18:26:53 10° SSE 18:31:09 88° ENE 18:35:26 10° NNW
BlueWalker 3 1.7 18:29:57 10° WNW 18:33:38 82° SSW 18:33:53 75° SE
Cosmos 2237 Rocket 2.4 18:28:11 10° SW 18:33:52 71° WNW 18:37:59 20° NNE
COSMO-SKYMED 1 3.1 18:32:55 10° N 18:37:13 58° WNW 18:41:28 10° SSW
CZ-4B R/B 4.5 18:35:30 10° S 18:38:59 48° W 18:42:27 10° NNW
ISS -3.4 18:36:09 10° WSW 18:39:01 59° SW 18:39:01 59° SW
Cosmos 2278 Rocket 4.5 18:37:01 10° NW 18:41:34 25° WSW 18:46:05 10° SSW
USA 306 4.0 18:39:45 10° WNW 18:40:49 23° WNW 18:40:49 23° WNW
Cosmos 1782 Rocket 3.9 18:38:24 10° N 18:41:42 47° NNE 18:41:42 47° NNE
Cosmos 2344 3.8 18:36:49 10° WSW 18:44:08 61° NW 18:48:48 24° NE
Cosmos 2219 Rocket 4.3 18:42:14 10° WNW 18:46:11 19° NW 18:50:08 10° N
YAOGAN 1 3.4 18:45:28 10° S 18:49:38 51° W 18:53:49 10° NNW
YAOGAN 11 3.9 18:51:31 76° SSE 18:51:31 76° SSE 18:55:34 10° SSW
CZ-4C R/B 1.8 18:47:17 10° SW 18:51:48 85° NW 18:53:04 53° NE
Nadezhda 4 Rocket 4.3 18:47:34 10° SSW 18:53:38 65° WNW 18:59:47 10° N
ATLAS 5 CENTAUR R/B 2.8 18:53:19 10° SSW 18:54:39 23° SSW 18:54:39 23° SSW
Cosmos 2195 Rocket 4.4 18:51:56 10° S 18:58:09 87° WNW 19:04:20 10° N
Meteor 1-24 Rocket 3.8 18:52:25 10° S 18:58:09 57° E 18:58:09 57° E
CZ-4B R/B 4.4 19:00:45 27° NNE 19:00:45 27° NNE 19:03:24 10° N
SPOT 1/Viking Rocket 3.8 18:55:46 10° S 19:00:54 68° WSW 19:06:03 10° NNW
Cosmos 1703 Rocket 3.7 18:56:44 10° SSW 19:01:10 72° W 19:02:12 50° NNW
USA 215 3.6 19:03:32 42° NE 19:05:18 52° N 19:11:36 10° WNW
Resurs 1-3 4.1 19:01:09 10° S 19:05:24 57° W 19:09:41 10° NNW
Meteor 2-5 Rocket 4.0 19:03:05 10° S 19:07:38 53° SSE 19:07:38 53° SSE
Cosmos 1656 Rocket 4.0 19:06:42 10° NW 19:12:07 64° WSW 19:14:50 30° S
Cosmos 841 Rocket 4.1 19:07:48 10° SW 19:12:57 54° WNW 19:15:03 33° N
SL-16 R/B 2.1 19:17:23 10° SSW 19:22:50 83° SW 19:22:50 83° SW
Cosmos 1553 Rocket 3.8 19:17:31 10° N 19:23:42 84° E 19:23:51 83° ESE
ADEOS 3.7 19:29:31 70° W 19:29:31 70° W 19:34:30 10° NNW
Resurs 01 Rocket 4.0 19:34:51 15° NNW 19:34:51 15° NNW 19:35:36 10° NNW
Cosmos 2369 Rocket 2.5 19:33:11 10° NW 19:38:41 60° WSW 19:38:45 60° WSW
Cosmos 1092 Rocket 4.5 19:33:37 10° SSW 19:39:40 57° WNW 19:45:51 10° N
ACS3 Solar Sail 3.8 19:35:29 10° SSW 19:40:52 28° W 19:46:18 10° NNW
ATLAS 2AS CENTAUR R/B 3.6 19:37:17 10° NW 19:43:37 43° WSW 19:46:35 28° S
Cosmos 2237 Rocket 4.3 20:14:50 10° W 20:18:58 20° NW 20:19:48 19° NNW
CZ-4C R/B 4.4 20:36:28 10° W 20:38:08 19° WNW 20:38:08 19° WNW
